Location: Saratoga Springs
(43.0831°N, 73.7850°W)
Time: 04:41:25
(UTC-04:00)

Vanguard 2 Rocket - Visible Passes

Search period start: 17 April 2024 00:00
Search period end: 27 April 2024 00:00
Orbit: 555 x 3307 km, 32.9° (Epoch: 16 April)

Date Brightness Start Highest point End Pass type
(mag) Time Alt. Az. Time Alt. Az. Time Alt. Az.
17 Apr 9.2 02:05:06 10° W 02:24:39 59° S 02:39:05 10° ESE visible
17 Apr 9.3 04:23:42 10° W 04:39:54 40° SSW 04:50:45 10° SSE visible
17 Apr 10.0 20:35:21 10° S 20:48:05 27° SE 21:02:51 10° E visible
17 Apr 9.5 22:45:53 10° SW 23:03:22 51° SSE 23:21:22 10° E visible
18 Apr 9.3 01:00:51 10° WSW 01:20:29 61° S 01:36:41 10° ESE visible
18 Apr 9.3 03:18:32 10° W 03:36:50 49° SSW 03:49:35 10° SE visible
18 Apr 9.6 05:38:53 10° W 05:50:20 23° SW 05:58:44 10° S visible
18 Apr 9.6 21:43:44 10° SW 21:59:26 43° SSE 22:17:18 10° E visible
18 Apr 9.4 23:57:11 10° WSW 00:16:06 60° S 00:33:46 10° E visible
19 Apr 9.3 02:13:47 10° W 02:33:10 56° SSW 02:47:50 10° ESE visible
19 Apr 9.5 04:32:45 10° W 04:48:01 33° SW 04:58:49 10° SSE visible
19 Apr 9.8 20:42:24 10° SSW 20:55:57 34° SE 21:12:28 10° E visible
19 Apr 9.5 22:54:08 10° SW 23:11:42 56° SSE 23:30:19 10° E visible
20 Apr 9.3 01:09:30 10° W 01:29:01 61° S 01:45:29 10° ESE visible
20 Apr 9.4 03:27:22 10° W 03:45:05 43° SSW 03:57:57 10° SE visible
20 Apr 9.5 21:51:44 10° SW 22:07:34 50° SSE 22:26:16 10° E visible
21 Apr 9.4 00:05:46 10° WSW 00:24:35 62° S 00:42:36 10° ESE visible
21 Apr 9.4 02:22:32 10° W 02:41:32 52° SSW 02:56:21 10° SE visible
21 Apr 9.7 04:42:08 10° W 04:55:55 26° SW 05:06:18 10° S visible
21 Apr 9.6 20:50:04 10° SSW 21:03:54 41° SSE 21:21:37 10° E visible
21 Apr 9.4 23:02:36 10° WSW 23:20:06 60° S 23:39:07 10° E visible
22 Apr 9.4 01:18:13 10° W 01:37:28 58° SSW 01:54:07 10° ESE visible
22 Apr 9.6 03:36:21 10° W 03:53:07 36° SW 04:05:53 10° SSE visible
22 Apr 9.8 19:49:10 10° SSW 20:00:48 31° SE 20:16:15 10° E visible
22 Apr 9.5 22:00:04 10° SW 22:15:50 55° SSE 22:35:04 10° E visible
23 Apr 9.4 00:14:27 10° WSW 00:33:03 61° S 00:51:16 10° ESE visible
23 Apr 9.5 02:31:21 10° W 02:49:43 46° SSW 03:04:34 10° SE visible
23 Apr 9.9 04:52:12 10° W 05:03:38 20° SW 05:12:55 10° S visible
23 Apr 9.5 20:58:08 10° SW 21:11:59 48° SSE 21:30:29 10° E visible
23 Apr 9.4 23:11:14 10° WSW 23:28:32 62° S 23:47:48 10° ESE visible
24 Apr 9.4 01:26:59 10° W 01:45:46 53° SSW 02:02:30 10° SE visible
24 Apr 9.8 03:45:39 10° W 04:00:58 29° SW 04:13:17 10° SSE visible
24 Apr 9.6 19:56:52 10° SSW 20:08:43 38° SE 20:25:20 10° E visible
24 Apr 9.4 22:08:35 10° WSW 22:24:11 59° S 22:43:44 10° E visible
25 Apr 9.4 00:23:12 10° W 00:41:27 58° SSW 00:59:45 10° ESE visible
25 Apr 9.6 02:40:20 10° W 02:57:43 39° SSW 03:12:23 10° SSE visible
25 Apr 10.2 05:03:54 10° WSW 05:11:14 14° SW 05:17:44 10° SSW visible
25 Apr 9.4 21:06:29 10° SW 21:20:13 53° SSE 21:39:10 10° E visible
25 Apr 9.4 23:19:58 10° WSW 23:36:58 61° S 23:56:20 10° ESE visible
26 Apr 9.5 01:35:51 10° W 01:53:56 47° SSW 02:10:34 10° SE visible
26 Apr 10.0 03:55:31 10° W 04:08:39 22° SW 04:19:52 10° S visible
26 Apr 9.4 20:04:58 10° SW 20:16:47 45° SSE 20:34:08 10° E visible
26 Apr 9.4 22:17:16 10° WSW 22:32:37 61° S 22:50:12 15° ESE visible
